This demonstration page uses our WeatherBlox Daily Observations layout. Learn more.

Left ArrowRight Arrow

Hourly Observations for January 7, 2022

Temp ( °F °C ) Dew Point ( °F °C ) Humidity (%) Winds ( mph kmh ) Pressure ( in mb ) Visibility ( mi km ) Precip ( " mm )
12:53 am 00:53 Clear 27 -2.8 10 -12.2 49 49 ESE 8 13 30.11 1020 10 16 0.00 0.00
1:53 am 01:53 Clear 26 -3.3 10 -12.2 51 51 ESE 6 9 30.11 1020 10 16 0.00 0.00
2:53 am 02:53 Clear 25 -3.9 10 -12.2 53 53 ESE 8 13 30.11 1020 10 16 0.00 0.00
3:53 am 03:53 Clear 23 -5 9 -12.8 55 55 E 6 9 30.10 1019 10 16 0.00 0.00
4:53 am 04:53 Clear 23 -5 9 -12.8 55 55 E 7 11 30.09 1019 10 16 0.00 0.00
5:53 am 05:53 Clear 22 -5.6 9 -12.8 57 57 E 6 9 30.09 1019 10 16 0.00 0.00
6:53 am 06:53 Clear 20 -6.7 9 -12.8 62 62 NE 3 6 30.11 1020 10 16 0.00 0.00
7:53 am 07:53 Clear 19 -7.2 8 -13.3 62 62 NE 3 6 30.11 1020 10 16 0.00 0.00
8:53 am 08:53 Sunny 23 -5 10 -12.2 57 57 N 3 6 30.10 1019 10 16 0.00 0.00
9:53 am 09:53 Sunny 27 -2.8 10 -12.2 49 49 VRB 3 6 30.10 1019 10 16 0.00 0.00
10:53 am 10:53 Sunny 31 -0.6 11 -11.7 43 43 SSW 3 6 30.09 1019 10 16 0.00 0.00
11:53 am 11:53 Sunny 37 2.8 12 -11.1 36 36 ENE 3 6 30.06 1018 10 16 0.00 0.00
12:53 pm 12:53 Sunny 42 5.6 13 -10.6 30 30 ESE 5 7 29.99 1016 10 16 0.00 0.00
1:53 pm 13:53 Sunny 48 8.9 13 -10.6 24 24 ESE 7 11 29.93 1014 10 16 0.00 0.00
2:53 pm 14:53 Sunny 53 11.7 14 -10 21 21 SE 8 13 29.89 1012 10 16 0.00 0.00
3:53 pm 15:53 Sunny 57 13.9 14 -10 18 18 SSE 8 13 29.87 1011 10 16 0.00 0.00
4:53 pm 16:53 Sunny 58 14.4 13 -10.6 17 17 SSE 10 17 29.85 1011 10 16 0.00 0.00
5:53 pm 17:53 Sunny 54 12.2 13 -10.6 19 19 SSE 8 13 29.86 1011 10 16 0.00 0.00
6:53 pm 18:53 Clear 48 8.9 12 -11.1 23 23 SSE 7 11 29.88 1012 10 16 0.00 0.00
7:53 pm 19:53 Clear 44 6.7 12 -11.1 27 27 Calm 29.91 1013 10 16 0.00 0.00
8:53 pm 20:53 Clear 43 6.1 14 -10 31 31 SE 9 15 29.90 1013 10 16 0.00 0.00
9:53 pm 21:53 Clear 43 6.1 15 -9.4 32 32 SSE 10 17 29.91 1013 10 16 0.00 0.00
10:53 pm 22:53 Clear 40 4.4 16 -8.9 38 38 SE 8 13 29.90 1013 10 16 0.00 0.00
11:53 pm 23:53 Clear 39 3.9 16 -8.9 39 39 ESE 7 11 29.90 1013 10 16 0.00 0.00

Powered by AerisWeather